Location: Grassland Mountain Observatory
(35.7543°N, 82.8038°W)
Time: 17:12:03
(UTC-05:00)

X-37B - Pass Details

Date: 10 December 2021
Orbit: 331 x 339 km, 45.0° (Epoch: 27 January)

Event Time Altitude Azimuth Distance (km) Brightness Sun altitude
Rises 17:42:47 0° 269° (W) 2,093 5.7 -5.4°
Reaches altitude 10° 17:45:01 10° 285° (WNW) 1,258 4.0 -5.8°
Maximum altitude 17:47:20 23° 341° (NNW) 773 2.1 -6.2°
Drops below altitude 10° 17:49:40 10° 37° (NE) 1,258 2.6 -6.6°
Enters shadow 17:50:12 - 42° (NE) 1,448 2.9 -6.7°
